Other Public Products
Issued by NWS Charleston, SC

Home | Current Version | Previous Version | Text Only | Print | Product List | Glossary On
Versions: 1 2 3 4 5 6 7 8 9 10 11 12 13 14 15 16 17 18 19 20 21 22 23 24 25 26 27 28 29 30 31 32 33 34 35 36 37 38 39 40 41 42 43 44 45 46 47 48 49 50
454
FPUS82 KCHS 200427
OPUCHS

TEST...KCHS/KSAV Gateway Observations...TEST
National Weather Service Charleston SC
1200 AM EDT FRI OCT 20 2017

NOTE: "fair" indicates few or no clouds below 12,000 feet with no
significant weather and/or obstructions to visibility.

SCZ050-WAZ558-NCZ071-TXZ119-213-PAZ071-DCZ001-FLZ074-172-MI076-
NYZ176-178-MAZ016-IL014-TNZ027-NJZ106-GAZ044-MD014-200500-

...Gateway Observations for Charleston International...

CITY           SKY/WX    TMP DP  RH WIND       PRES   REMARKS
Chas Airport   FAIR      59  58  96 N6        30.22S
Seattle        CLOUDY    50  48  93 SE10      29.50F
Charlotte      FAIR      50  48  93 CALM      30.25S
Dallas DFW     MOCLDY    72  55  55 SE12      30.08R
Dallas Love    MOCLDY    72  54  53 SE15      30.09R
Philladelphia  FAIR      59  50  72 SW9       30.14R
Wash National  FAIR      59  54  83 S5        30.18R
Baltimore      FAIR      52  49  89 W3        30.16R
Miami          MOCLDY    81  75  82 NE6       30.04S
Detroit        FAIR      53  33  46 W5        30.19R
Newark         FAIR      59  45  59 SW8       30.09S
Laguardia      MOCLDY    64  46  52 S9        30.07F
J F K          FAIR      60  51  72 SW13      30.10S
Boston Logan   FAIR      59  51  75 SW15      29.99F
Ft. Lauderdale FAIR      80  74  81 E10G20    30.03S
Chicago O`Hare FAIR      54  39  57 SE3       30.15S
Chicago Midway FAIR      59  35  40 SE6       30.16S
Houston Bush   MOCLDY    68  61  78 N5        30.10S
Houston Hobby  MOCLDY    75  64  68 E3        30.11R
Nashville      FAIR      55  49  80 CALM      30.25S
Atlanta        FAIR      60  46  59 CALM      30.26S

$$

GAZ044-118-TXZ119-213-NCZ071-DCZ001-MDZ014-506-PAZ021-071-NJZ106-
NYZ176-178-MAZ106-OHZ011-021-055-MIZ076-KYZ091-ILZ014-INZ047-
MNZ060-ONZ431-200500-

...Gateway Observations for Savannah International...

CITY           SKY/WX    TMP DP  RH WIND       PRES   REMARKS
Savannah Arpt  FAIR      61  59  93 CALM      30.23R
Atlanta        FAIR      60  46  59 CALM      30.26S
Charlotte      FAIR      50  48  93 CALM      30.25S
Dallas DFW     MOCLDY    72  55  55 SE12      30.08R
Houston Bush   MOCLDY    68  61  78 N5        30.10S
Wash National  FAIR      59  54  83 S5        30.18R
Wash Dulles    FAIR      50  48  93 CALM      30.18R
Baltimore      FAIR      52  49  89 W3        30.16R
Philadelphia   FAIR      59  50  72 SW9       30.14R
Newark         FAIR      59  45  59 SW8       30.09S
Laguardia      MOCLDY    64  46  52 S9        30.07F
J F K          FAIR      60  51  72 SW13      30.10S
Boston         FAIR      59  51  75 SW15      29.99F
Pittsburg      MOCLDY    60  47  61 SW9       30.19R
Akron          FAIR      54  47  77 W3        30.19R
Cleveland      FAIR      55  49  80 CALM      30.20R
Cincinnati     MOCLDY    55  51  86 S5        30.23S
Columbus       FAIR      53  49  84 CALM      30.22R
Detroit        FAIR      53  33  46 W5        30.19R
Chicago O`Hare FAIR      54  39  57 SE3       30.15S
Minneapolis    FAIR      56  41  57 SE7       29.94S
Indianapolis   FAIR      58  51  78 CALM      30.22S
Toronto Canada CLEAR     52  34  50 W6        30.10R

$$




USA.gov is the U.S. government's official web portal to all federal, state and local government web resources and services.